Weather History for Monterey, CA

Change the Weather History Date:

Monday, November 5, 2012

  Actual Average Record
Temperature  
Mean Temperature 71 °F 56 °F  
Max Temperature 88 °F 65 °F 88 °F (2012)
Min Temperature 53 °F 48 °F 41 °F (2003)
Degree Days  
Heating Degree Days 0    
Month to date heating degree days 24  
Since 1 July heating degree days 699  
Cooling Degree Days 6    
Month to date cooling degree days 6  
Year to date cooling degree days 32  
Growing Degree Days 20 (Base 50)    
Moisture  
Dew Point 43 °F    
Average Humidity 43    
Maximum Humidity 66    
Minimum Humidity 20    
Precipitation  
Precipitation 0.00 in - 0.29 in (2011)
Month to date precipitation 0.13  
Year to date precipitation 8.46  
Since 1 July precipitation 0.81  
Sea Level Pressure  
Sea Level Pressure 30.10 in    
Wind  
Wind Speed 2 mph (East)    
Max Wind Speed 14 mph    
Max Gust Speed 15 mph    
Visibility 10 miles    
Events      
T = Trace of Precipitation, MM = Missing Value Source: NWS Daily Summary

Daily Weather History Graph

Daily Weather History Graph

Search for Another Location

Airport:

Trip Planner

Search our weather history database for the weather conditions in past years. The results will help you decide how hot, cold, wet, or windy it might be!

Date:

Astronomy

Nov. 05, 2012 Rise Set
Actual Time 6:35 AM PST 5:06 PM PST
Civil Twilight 6:08 AM PST 5:33 PM PST
Nautical Twilight 5:37 AM PST 6:03 PM PST
Astronomical Twilight 5:07 AM PST 6:34 PM PST
Moon 10:48 PM PST (11/5) 11:57 AM PST (11/5)
Length of Visible Light 11h 24m
Length of Day
10h 30m
Waning Gibbous, 62% of the Moon is Illuminated
Nov 5
Waning Gibbous
Nov 6
Last Quarter
Nov 13
New
Nov 20
First Quarter
Nov 28
Full

Hourly Weather History & Observations

Time (PST) Temp. Dew Point Humidity Pressure Visibility Wind Dir Wind Speed Gust Speed Precip Events Conditions
12:54 AM 57.0 °F 45.0 °F 64% 30.14 in 10.0 mi East 3.5 mph - N/A   Clear
1:54 AM 57.0 °F 43.0 °F 59% 30.14 in 10.0 mi Calm Calm - N/A   Clear
2:54 AM 55.0 °F 43.0 °F 64% 30.12 in 10.0 mi Calm Calm - N/A   Clear
3:54 AM 55.0 °F 44.1 °F 67% 30.11 in 10.0 mi Calm Calm - N/A   Clear
4:54 AM 53.1 °F 43.0 °F 69% 30.12 in 10.0 mi Calm Calm - N/A   Clear
5:54 AM 55.9 °F 41.0 °F 57% 30.12 in 10.0 mi Calm Calm - N/A   Clear
6:54 AM 54.0 °F 39.9 °F 59% 30.13 in 10.0 mi Calm Calm - N/A   Clear
7:54 AM 60.1 °F 43.0 °F 53% 30.14 in 10.0 mi Calm Calm - N/A   Clear
8:54 AM 66.9 °F 45.0 °F 45% 30.14 in 10.0 mi Calm Calm - N/A   Clear
9:54 AM 72.0 °F 46.9 °F 41% 30.13 in 10.0 mi Calm Calm - N/A   Clear
10:54 AM 79.0 °F 46.0 °F 31% 30.12 in 10.0 mi WNW 3.5 mph - N/A   Clear
11:54 AM 82.0 °F 46.0 °F 28% 30.09 in 10.0 mi West 5.8 mph - N/A   Clear
12:54 PM 82.9 °F 46.0 °F 27% 30.07 in 10.0 mi WSW 4.6 mph - N/A   Clear
1:54 PM 87.1 °F 41.0 °F 20% 30.05 in 10.0 mi NW 3.5 mph - N/A   Clear
2:54 PM 86.0 °F 42.1 °F 21% 30.05 in 10.0 mi Calm Calm - N/A   Clear
3:54 PM 82.9 °F 44.1 °F 25% 30.05 in 10.0 mi Calm Calm - N/A   Clear
4:54 PM 72.0 °F 46.9 °F 41% 30.06 in 10.0 mi Calm Calm - N/A   Clear
5:54 PM 66.9 °F 48.9 °F 52% 30.07 in 10.0 mi Calm Calm - N/A   Clear
6:54 PM 64.0 °F 46.0 °F 52% 30.08 in 10.0 mi Calm Calm - N/A   Clear
7:54 PM 64.0 °F 44.1 °F 48% 30.08 in 10.0 mi Calm Calm - N/A   Clear
8:54 PM 61.0 °F 39.0 °F 44% 30.09 in 10.0 mi ESE 5.8 mph - N/A   Clear
9:54 PM 62.1 °F 36.0 °F 38% 30.09 in 10.0 mi East 11.5 mph - N/A   Clear
10:54 PM 63.0 °F 36.0 °F 37% 30.08 in 10.0 mi East 4.6 mph - N/A   Clear
11:54 PM 61.0 °F 35.1 °F 38% 30.08 in 10.0 mi East 3.5 mph - N/A   Clear